Location: Brno
(49.2000°N, 16.6330°E)
Time: 01:32:38
(UTC+01:00)

RESURS DK-1 - Visible Passes

Search period start: 28 February 2015 00:00
Search period end: 10 March 2015 00:00
Orbit: 558 x 567 km, 69.9° (Epoch: 27 February)

Date Brightness Start Highest point End Pass type
(mag) Time Alt. Az. Time Alt. Az. Time Alt. Az.
28 Feb 4.3 03:38:28 25° NNE 03:39:24 28° NE 03:43:01 10° ESE visible
28 Feb 2.8 05:14:30 15° NW 05:17:39 39° WSW 05:21:30 10° S visible
28 Feb 2.6 19:16:25 10° S 19:20:25 47° ESE 19:21:18 40° ENE visible
28 Feb 4.8 20:55:17 10° WSW 20:57:24 21° WNW 20:57:24 21° WNW visible
01 Mar 3.9 03:39:08 35° NE 03:39:08 35° NE 03:42:50 10° ESE visible
01 Mar 3.2 05:15:11 21° WNW 05:17:03 29° WSW 05:20:38 10° S visible
01 Mar 2.3 19:15:43 10° SSW 19:19:51 63° ESE 19:22:40 20° NE visible
01 Mar 4.8 20:55:13 10° W 20:58:25 20° NW 20:58:46 20° NW visible
02 Mar 4.0 03:40:10 30° ESE 03:40:10 30° ESE 03:42:32 10° SE visible
02 Mar 3.5 05:16:14 22° WSW 05:16:26 22° WSW 05:19:37 10° SSW visible
02 Mar 2.3 19:15:07 10° SSW 19:19:18 85° ESE 19:23:31 10° NNE visible
02 Mar 5.2 20:55:17 10° W 20:58:03 17° NW 20:59:48 13° NNW visible
03 Mar 4.9 03:41:31 14° SE 03:41:31 14° SE 03:42:09 10° SE visible
03 Mar 4.3 05:17:37 13° SW 05:17:37 13° SW 05:18:24 10° SW visible
03 Mar 2.6 19:14:36 10° SW 19:18:47 73° WNW 19:22:59 10° NNE visible
03 Mar 5.4 20:55:28 10° WNW 20:57:43 14° NW 20:59:52 10° N visible
04 Mar 3.1 19:14:10 10° SW 19:18:17 55° NW 19:22:24 10° NNE visible
04 Mar 5.5 20:55:54 10° NW 20:57:25 11° NNW 20:58:49 10° NNW visible
05 Mar 3.7 19:13:49 10° SW 19:17:48 42° NW 19:21:48 10° NNE visible
06 Mar 4.1 19:13:33 10° WSW 19:17:21 33° NW 19:21:10 10° NNE visible
07 Mar 4.6 19:13:22 10° WSW 19:16:57 26° NW 19:20:29 10° N visible
08 Mar 4.9 19:13:16 10° W 19:16:32 21° NW 19:19:46 10° N visible
09 Mar 5.1 19:13:16 10° W 19:16:10 18° NW 19:19:00 10° N visible
